Weather in Usmat

Uzbekistan     39°44′22″N   67°38′41″E
temp.,
°C
wind,
m/s
gust,
m/s
humid.,
%
clouds,
%
prec.,
mm/h
press.,
hPa
HPBL,
m
23 october, sat
sat2323:00+1ese23724 0.0 103481
02:00+1ese227016 0.0 103324
05:00+1e33650 0.0 103143
08:00+3e35540 0.0 1030136
11:00+7ne34400 0.0 1027486
14:00+9ene55380 0.0 1025605
17:00+7ene45430 0.0 1025436
20:00+4e56575 0.0 1027179
24 october, sun
sun2423:00+4e45540 0.0 102686
02:00+4ese45480 0.0 102358
05:00+5ese33380 0.0 102126
08:00+7ese22320 0.0 102029
11:00+12n21220 0.0 1017501
14:00+14nnw22230 0.0 1016697
17:00+11ne22330 0.0 1016100
20:00+9ese22360 0.0 101616
25 october, mon
mon2523:00+9se22300 0.0 101510
02:00+9s22300 0.0 101510
05:00+8s22290 0.0 101510
08:00+9s22250 0.0 101611
11:00+14w32190 0.0 1016582
14:00+16wnw32170 0.0 1015998
17:00+13nw2320100 0.0 101662
20:00+11ssw1123100 0.0 101811
26 october, tue
tue2623:00+9ssw222468 0.0 101812
02:00+10sse2224100 0.0 101813
05:00+9sse1126100 0.0 101810
08:00+10s222550 0.0 101912
11:00+14w33195 0.0 1019731
14:00+15wnw55204 0.0 10191292
17:00+13wnw332251 0.0 1020332
20:00+10s1127100 0.0 102110
27 october, wed
wed2723:00+9ssw0029100 0.0 102110
02:00+8e2233100 0.0 102212
05:00+7ssw1134100 0.0 102211
08:00+7wsw2241100 0.0 102495
11:00+7w5564100 0.0 1026614
14:00+6w6657100 0.0 1027827
17:00+4wsw3391100 0.5 1029414
20:00+3wsw2296100 4.1 1030283